START_TIME,STEP,MOV.,AL01,t_acc.,AL02,t_acc.,E37,t_acc.,H21,t_acc.
1986-01-25 12:00:35.690 ,6,0,0.,24.0,0.,24.0,0.,24.0,0.,24.0
1986-01-25 12:00:59.690 ,6,0,0.,24.0,0.,24.0,0.,24.0,0.,24.0
1986-01-25 12:01:23.690 ,6,0,0.,24.0,0.,24.0,0.,24.0,0.,24.0
1986-01-25 12:01:47.690 ,6,0,0.,24.0,0.,24.0,0.,24.0,0.,24.0
1986-01-25 12:02:11.690 ,6,0,0.,24.0,0.,24.0,0.,24.0,0.,24.0
1986-01-25 12:02:35.690 ,6,0,0.,24.0,0.,24.0,0.,24.0,0.,24.0
1986-01-25 12:02:59.690 ,6,0,0.,24.0,0.,24.0,0.,24.0,0.,24.0
1986-01-25 12:03:23.690 ,6,0,1.,24.0,0.,24.0,0.,24.0,0.,24.0
1986-01-25 12:03:47.690 ,6,0,0.,24.0,0.,24.0,0.,24.0,0.,24.0
1986-01-25 12:04:11.690 ,6,0,0.,24.0,0.,24.0,0.,24.0,0.,24.0
1986-01-25 12:04:35.690 ,6,0,0.,24.0,0.,24.0,0.,24.0,0.,24.0
1986-01-25 12:04:59.690 ,6,0,0.,24.0,0.,24.0,0.,24.0,0.,24.0
1986-01-25 12:05:23.690 ,6,0,0.,24.0,0.,24.0,0.,24.0,0.,24.0
1986-01-25 12:05:47.690 ,6,0,0.,24.0,0.,24.0,0.,24.0,0.,24.0
1986-01-25 12:06:11.690 ,6,0,0.,24.0,0.,24.0,0.,24.0,0.,24.0
1986-01-25 12:06:35.690 ,6,0,0.,24.0,0.,24.0,0.,24.0,0.,24.0
1986-01-25 12:06:59.690 ,0,0,0.,24.0,0.,24.0,0.,24.0,0.,24.0
1986-01-25 12:07:22.490 ,0,0,,0,,0,,0,,0
1986-01-25 12:07:23.690 ,6,0,0.,24.0,0.,24.0,0.,24.0,0.,24.0
1986-01-25 12:07:47.690 ,6,0,0.,24.0,0.,24.0,0.,24.0,0.,24.0
1986-01-25 12:08:11.690 ,6,0,0.,24.0,0.,24.0,0.,24.0,0.,24.0
1986-01-25 12:08:35.690 ,6,0,0.,24.0,0.,24.0,0.,24.0,0.,24.0
1986-01-25 12:08:59.690 ,7,1,9.,24.0,0.,24.0,0.,24.0,0.,24.0
1986-01-25 12:09:23.690 ,3,1,0.,24.0,0.,24.0,0.,24.0,0.,24.0
1986-01-25 12:09:47.690 ,0,1,0.,24.0,0.,24.0,0.,24.0,0.,24.0
1986-01-25 12:10:11.690 ,4,1,0.,24.0,0.,24.0,0.,24.0,0.,24.0
1986-01-25 12:10:35.690 ,6,0,0.,24.0,0.,24.0,0.,24.0,0.,24.0
1986-01-25 12:10:59.690 ,6,0,0.,24.0,0.,24.0,0.,24.0,0.,24.0
1986-01-25 12:11:23.690 ,6,0,0.,24.0,0.,24.0,0.,24.0,0.,24.0
1986-01-25 12:11:47.690 ,6,0,0.,24.0,0.,24.0,0.,24.0,0.,24.0
1986-01-25 12:12:11.690 ,6,0,0.,24.0,0.,24.0,0.,24.0,0.,24.0
1986-01-25 12:12:35.690 ,6,0,0.,24.0,0.,24.0,0.,24.0,0.,24.0
1986-01-25 12:12:59.690 ,6,0,0.,24.0,0.,24.0,0.,24.0,0.,24.0
1986-01-25 12:13:23.690 ,6,0,0.,24.0,0.,24.0,0.,24.0,0.,24.0
1986-01-25 12:13:47.690 ,6,0,0.,24.0,0.,24.0,0.,24.0,0.,24.0
1986-01-25 12:14:11.690 ,6,0,0.,24.0,0.,24.0,0.,24.0,0.,24.0
1986-01-25 12:14:35.690 ,6,0,0.,24.0,0.,24.0,0.,24.0,0.,24.0
1986-01-25 12:14:59.690 ,6,0,0.,24.0,0.,24.0,0.,24.0,0.,24.0
1986-01-25 12:15:23.690 ,6,0,0.,24.0,0.,24.0,0.,24.0,0.,24.0
1986-01-25 12:15:47.690 ,6,0,0.,24.0,0.,24.0,0.,24.0,0.,24.0
1986-01-25 12:16:11.690 ,6,0,0.,24.0,0.,24.0,0.,24.0,0.,24.0
1986-01-25 12:16:35.690 ,6,0,1.,24.0,0.,24.0,0.,24.0,0.,24.0
1986-01-25 12:16:59.690 ,6,0,0.,24.0,0.,24.0,0.,24.0,0.,24.0
1986-01-25 12:17:23.690 ,6,0,0.,24.0,0.,24.0,0.,24.0,0.,24.0
1986-01-25 12:17:47.690 ,6,0,0.,24.0,0.,24.0,0.,24.0,0.,24.0
1986-01-25 12:18:11.690 ,6,0,0.,24.0,2.,24.0,0.,24.0,0.,24.0
1986-01-25 12:18:35.690 ,6,0,0.,24.0,0.,24.0,0.,24.0,0.,24.0
1986-01-25 12:18:59.690 ,6,0,0.,24.0,0.,24.0,0.,24.0,0.,24.0
1986-01-25 12:19:23.690 ,6,0,0.,24.0,0.,24.0,0.,24.0,0.,24.0
1986-01-25 12:19:47.690 ,6,0,0.,24.0,1.,24.0,0.,24.0,0.,24.0
1986-01-25 12:20:11.690 ,6,0,1.,24.0,0.,24.0,0.,24.0,0.,24.0
1986-01-25 12:20:35.690 ,6,0,0.,24.0,0.,24.0,0.,24.0,0.,24.0
1986-01-25 12:20:59.690 ,7,1,20.,24.0,0.,24.0,0.,24.0,0.,24.0
1986-01-25 12:21:23.690 ,3,1,0.,24.0,0.,24.0,0.,24.0,0.,24.0
1986-01-25 12:21:47.690 ,0,1,0.,24.0,0.,24.0,0.,24.0,0.,24.0
1986-01-25 12:22:11.690 ,4,1,0.,24.0,0.,24.0,0.,24.0,0.,24.0
1986-01-25 12:22:35.690 ,6,0,0.,24.0,0.,24.0,0.,24.0,0.,24.0
1986-01-25 12:22:59.690 ,6,0,0.,24.0,0.,24.0,0.,24.0,0.,24.0
1986-01-25 12:23:23.690 ,6,0,0.,24.0,0.,24.0,0.,24.0,0.,24.0
1986-01-25 12:23:47.690 ,6,0,0.,24.0,1.,24.0,0.,24.0,0.,24.0
1986-01-25 12:24:11.690 ,6,0,0.,24.0,0.,24.0,0.,24.0,0.,24.0
1986-01-25 12:24:35.690 ,6,0,0.,24.0,0.,24.0,0.,24.0,0.,24.0
1986-01-25 12:24:59.690 ,6,0,0.,24.0,0.,24.0,0.,24.0,0.,24.0
1986-01-25 12:25:23.690 ,6,0,0.,24.0,0.,24.0,0.,24.0,0.,24.0
1986-01-25 12:25:47.690 ,6,0,0.,24.0,0.,24.0,0.,24.0,0.,24.0
1986-01-25 12:26:11.690 ,6,0,0.,24.0,0.,24.0,0.,24.0,0.,24.0
1986-01-25 12:26:35.690 ,6,0,0.,24.0,0.,24.0,0.,24.0,0.,24.0
1986-01-25 12:26:59.690 ,6,0,0.,24.0,0.,24.0,0.,24.0,0.,24.0
1986-01-25 12:27:23.690 ,6,0,0.,24.0,0.,24.0,0.,24.0,0.,24.0
1986-01-25 12:27:47.690 ,6,0,0.,24.0,0.,24.0,0.,24.0,0.,24.0
1986-01-25 12:28:11.690 ,6,0,0.,24.0,0.,24.0,0.,24.0,0.,24.0
1986-01-25 12:28:35.690 ,6,0,0.,24.0,0.,24.0,0.,24.0,0.,24.0
1986-01-25 12:28:59.690 ,6,0,0.,24.0,1.,24.0,0.,24.0,0.,24.0
1986-01-25 12:29:23.690 ,6,0,0.,24.0,0.,24.0,0.,24.0,0.,24.0
1986-01-25 12:29:47.690 ,6,0,0.,24.0,0.,24.0,0.,24.0,0.,24.0
1986-01-25 12:30:11.690 ,6,0,0.,24.0,0.,24.0,0.,24.0,0.,24.0
1986-01-25 12:30:35.690 ,6,0,0.,24.0,0.,24.0,0.,24.0,0.,24.0
1986-01-25 12:30:59.690 ,6,0,0.,24.0,0.,24.0,0.,24.0,0.,24.0
1986-01-25 12:31:23.690 ,6,0,0.,24.0,0.,24.0,0.,24.0,0.,24.0
1986-01-25 12:31:47.690 ,6,0,0.,24.0,0.,24.0,0.,24.0,0.,24.0
1986-01-25 12:32:11.690 ,6,0,0.,24.0,0.,24.0,0.,24.0,0.,24.0
1986-01-25 12:32:35.690 ,6,0,0.,24.0,0.,24.0,0.,24.0,0.,24.0
1986-01-25 12:32:59.690 ,7,1,14.,24.0,0.,24.0,0.,24.0,0.,24.0
1986-01-25 12:33:23.690 ,3,1,2.,24.0,0.,24.0,0.,24.0,0.,24.0
1986-01-25 12:33:47.690 ,0,1,0.,24.0,0.,24.0,0.,24.0,0.,24.0
1986-01-25 12:34:11.690 ,4,1,0.,24.0,0.,24.0,0.,24.0,0.,24.0
1986-01-25 12:34:35.690 ,6,0,0.,24.0,0.,24.0,0.,24.0,0.,24.0
1986-01-25 12:34:59.690 ,6,0,0.,24.0,0.,24.0,0.,24.0,0.,24.0
1986-01-25 12:35:23.690 ,6,0,0.,24.0,0.,24.0,0.,24.0,0.,24.0
1986-01-25 12:35:47.690 ,6,0,0.,24.0,0.,24.0,0.,24.0,0.,24.0
1986-01-25 12:36:11.690 ,6,0,0.,24.0,0.,24.0,0.,24.0,0.,24.0
1986-01-25 12:36:35.690 ,6,0,0.,24.0,0.,24.0,0.,24.0,0.,24.0
1986-01-25 12:36:59.690 ,6,0,0.,24.0,0.,24.0,0.,24.0,0.,24.0
1986-01-25 12:37:23.690 ,6,0,0.,24.0,0.,24.0,0.,24.0,0.,24.0
1986-01-25 12:37:47.690 ,6,0,0.,24.0,0.,24.0,0.,24.0,0.,24.0
1986-01-25 12:38:11.690 ,6,0,0.,24.0,0.,24.0,0.,24.0,0.,24.0
1986-01-25 12:38:35.690 ,6,0,0.,24.0,0.,24.0,0.,24.0,0.,24.0
1986-01-25 12:38:59.690 ,6,0,0.,24.0,0.,24.0,0.,24.0,0.,24.0
1986-01-25 12:39:23.690 ,6,0,0.,24.0,0.,24.0,0.,24.0,0.,24.0
1986-01-25 12:39:47.690 ,6,0,0.,24.0,0.,24.0,0.,24.0,0.,24.0
1986-01-25 12:40:11.690 ,6,0,0.,24.0,0.,24.0,0.,24.0,0.,24.0
1986-01-25 12:40:35.690 ,6,0,0.,24.0,0.,24.0,0.,24.0,0.,24.0
1986-01-25 12:40:59.690 ,6,0,0.,24.0,0.,24.0,0.,24.0,0.,24.0
1986-01-25 12:41:23.690 ,6,0,0.,24.0,0.,24.0,0.,24.0,0.,24.0
1986-01-25 12:41:47.690 ,6,0,0.,24.0,0.,24.0,0.,24.0,0.,24.0
1986-01-25 12:42:11.690 ,6,0,0.,24.0,0.,24.0,0.,24.0,0.,24.0
1986-01-25 12:42:35.690 ,6,0,0.,24.0,0.,24.0,0.,24.0,0.,24.0
1986-01-25 12:42:59.690 ,6,0,0.,24.0,0.,24.0,0.,24.0,0.,24.0
1986-01-25 12:43:23.690 ,6,0,0.,24.0,0.,24.0,0.,24.0,0.,24.0
1986-01-25 12:43:47.690 ,6,0,0.,24.0,0.,24.0,0.,24.0,0.,24.0
1986-01-25 12:44:11.690 ,6,0,0.,24.0,0.,24.0,0.,24.0,0.,24.0
1986-01-25 12:44:35.690 ,6,0,0.,24.0,0.,24.0,0.,24.0,0.,24.0
1986-01-25 12:44:59.690 ,7,1,10.,24.0,0.,24.0,0.,24.0,0.,24.0
1986-01-25 12:45:23.690 ,3,1,1.,24.0,0.,24.0,0.,24.0,0.,24.0
1986-01-25 12:45:47.690 ,0,1,0.,24.0,0.,24.0,0.,24.0,0.,24.0
1986-01-25 12:46:11.690 ,4,1,0.,24.0,0.,24.0,0.,24.0,0.,24.0
1986-01-25 12:46:35.690 ,6,0,0.,24.0,0.,24.0,0.,24.0,0.,24.0
1986-01-25 12:46:59.690 ,6,0,0.,24.0,0.,24.0,0.,24.0,0.,24.0
1986-01-25 12:47:23.690 ,6,0,0.,24.0,0.,24.0,0.,24.0,0.,24.0
1986-01-25 12:47:47.690 ,6,0,0.,24.0,0.,24.0,0.,24.0,0.,24.0
1986-01-25 12:48:11.690 ,6,0,0.,24.0,0.,24.0,0.,24.0,0.,24.0
1986-01-25 12:48:35.690 ,6,0,0.,24.0,0.,24.0,0.,24.0,0.,24.0
1986-01-25 12:48:59.690 ,6,0,0.,24.0,0.,24.0,0.,24.0,0.,24.0
1986-01-25 12:49:23.690 ,6,0,0.,24.0,0.,24.0,0.,24.0,0.,24.0
1986-01-25 12:49:47.690 ,6,0,0.,24.0,0.,24.0,0.,24.0,0.,24.0
1986-01-25 12:50:11.690 ,6,0,0.,24.0,0.,24.0,0.,24.0,0.,24.0
1986-01-25 12:50:35.690 ,6,0,0.,24.0,0.,24.0,0.,24.0,0.,24.0
1986-01-25 12:50:59.690 ,6,0,0.,24.0,0.,24.0,0.,24.0,0.,24.0
1986-01-25 12:51:23.690 ,6,0,0.,24.0,0.,24.0,0.,24.0,0.,24.0
1986-01-25 12:51:47.690 ,6,0,0.,24.0,0.,24.0,0.,24.0,0.,24.0
1986-01-25 12:52:11.690 ,6,0,0.,24.0,0.,24.0,0.,24.0,0.,24.0
1986-01-25 12:52:35.690 ,6,0,0.,24.0,0.,24.0,0.,24.0,0.,24.0
1986-01-25 12:52:59.690 ,6,0,0.,24.0,0.,24.0,0.,24.0,0.,24.0
1986-01-25 12:53:23.690 ,6,0,0.,24.0,0.,24.0,0.,24.0,0.,24.0
1986-01-25 12:53:47.690 ,6,0,0.,24.0,0.,24.0,0.,24.0,0.,24.0
1986-01-25 12:54:11.690 ,6,0,0.,24.0,0.,24.0,0.,24.0,0.,24.0
1986-01-25 12:54:35.690 ,6,0,0.,24.0,0.,24.0,0.,24.0,0.,24.0
1986-01-25 12:54:59.690 ,6,0,0.,24.0,0.,24.0,0.,24.0,0.,24.0
1986-01-25 12:55:23.690 ,6,0,0.,24.0,0.,24.0,0.,24.0,0.,24.0
1986-01-25 12:55:47.690 ,6,0,0.,24.0,0.,24.0,0.,24.0,0.,24.0
1986-01-25 12:56:11.690 ,6,0,0.,24.0,0.,24.0,0.,24.0,0.,24.0
1986-01-25 12:56:35.690 ,6,0,0.,24.0,0.,24.0,0.,24.0,0.,24.0
1986-01-25 12:56:59.690 ,7,1,13.,24.0,0.,24.0,0.,24.0,0.,24.0
1986-01-25 12:57:23.690 ,3,1,0.,24.0,0.,24.0,0.,24.0,0.,24.0
1986-01-25 12:57:47.690 ,0,1,0.,24.0,0.,24.0,0.,24.0,0.,24.0
1986-01-25 12:58:11.690 ,4,1,0.,24.0,0.,24.0,0.,24.0,0.,24.0
1986-01-25 12:58:35.690 ,6,0,0.,24.0,0.,24.0,0.,24.0,0.,24.0
1986-01-25 12:58:59.690 ,6,0,0.,24.0,0.,24.0,0.,24.0,0.,24.0
1986-01-25 12:59:23.690 ,6,0,0.,24.0,0.,24.0,0.,24.0,0.,24.0
1986-01-25 12:59:47.690 ,6,0,0.,24.0,1.,24.0,0.,24.0,0.,24.0
1986-01-25 13:00:11.690 ,6,0,0.,24.0,0.,24.0,0.,24.0,0.,24.0
1986-01-25 13:00:35.690 ,6,0,0.,24.0,0.,24.0,0.,24.0,0.,24.0
1986-01-25 13:00:59.690 ,6,0,0.,24.0,0.,24.0,0.,24.0,0.,24.0
1986-01-25 13:01:23.690 ,6,0,0.,24.0,0.,24.0,0.,24.0,0.,24.0
1986-01-25 13:01:47.690 ,6,0,0.,24.0,0.,24.0,0.,24.0,0.,24.0
1986-01-25 13:02:11.690 ,6,0,0.,24.0,0.,24.0,0.,24.0,0.,24.0
1986-01-25 13:02:35.690 ,6,0,0.,24.0,0.,24.0,0.,24.0,0.,24.0
1986-01-25 13:02:59.690 ,6,0,0.,24.0,0.,24.0,0.,24.0,0.,24.0
1986-01-25 13:03:23.690 ,6,0,0.,24.0,0.,24.0,0.,24.0,0.,24.0
1986-01-25 13:03:47.690 ,6,0,0.,24.0,0.,24.0,0.,24.0,0.,24.0
1986-01-25 13:04:11.690 ,6,0,0.,24.0,0.,24.0,0.,24.0,0.,24.0
1986-01-25 13:04:35.690 ,6,0,0.,24.0,0.,24.0,0.,24.0,0.,24.0
1986-01-25 13:04:59.690 ,6,0,0.,24.0,0.,24.0,0.,24.0,0.,24.0
1986-01-25 13:05:23.690 ,6,0,0.,24.0,0.,24.0,0.,24.0,0.,24.0
1986-01-25 13:05:47.690 ,6,0,0.,24.0,0.,24.0,0.,24.0,0.,24.0
1986-01-25 13:06:11.690 ,6,0,0.,24.0,0.,24.0,0.,24.0,0.,24.0
1986-01-25 13:06:35.690 ,6,0,0.,24.0,0.,24.0,0.,24.0,0.,24.0
1986-01-25 13:06:59.690 ,6,0,1.,24.0,0.,24.0,0.,24.0,0.,24.0
1986-01-25 13:07:23.690 ,6,0,0.,24.0,1.,24.0,0.,24.0,0.,24.0
1986-01-25 13:07:47.690 ,6,0,0.,24.0,0.,24.0,0.,24.0,0.,24.0
1986-01-25 13:08:11.690 ,6,0,0.,24.0,0.,24.0,0.,24.0,0.,24.0
1986-01-25 13:08:35.690 ,6,0,0.,24.0,0.,24.0,0.,24.0,0.,24.0
1986-01-25 13:08:59.690 ,7,1,14.,24.0,0.,24.0,0.,24.0,0.,24.0
1986-01-25 13:09:23.690 ,3,1,0.,24.0,0.,24.0,0.,24.0,0.,24.0
1986-01-25 13:09:47.690 ,0,1,0.,24.0,0.,24.0,0.,24.0,0.,24.0
1986-01-25 13:10:11.690 ,4,1,0.,24.0,0.,24.0,0.,24.0,0.,24.0
1986-01-25 13:10:35.690 ,6,0,0.,24.0,0.,24.0,0.,24.0,0.,24.0
1986-01-25 13:10:59.690 ,6,0,0.,24.0,0.,24.0,0.,24.0,0.,24.0
1986-01-25 13:11:23.690 ,6,0,0.,24.0,0.,24.0,0.,24.0,0.,24.0
1986-01-25 13:11:47.690 ,6,0,0.,24.0,0.,24.0,0.,24.0,0.,24.0
1986-01-25 13:12:11.690 ,6,0,0.,24.0,0.,24.0,0.,24.0,0.,24.0
1986-01-25 13:12:35.690 ,6,0,0.,24.0,0.,24.0,0.,24.0,0.,24.0
1986-01-25 13:12:59.690 ,6,0,0.,24.0,0.,24.0,0.,24.0,0.,24.0
1986-01-25 13:13:23.690 ,6,0,0.,24.0,0.,24.0,0.,24.0,0.,24.0
1986-01-25 13:13:47.690 ,6,0,0.,24.0,0.,24.0,0.,24.0,0.,24.0
1986-01-25 13:14:11.690 ,6,0,1.,24.0,0.,24.0,0.,24.0,0.,24.0
1986-01-25 13:14:35.690 ,6,0,0.,24.0,0.,24.0,0.,24.0,0.,24.0
1986-01-25 13:14:59.690 ,6,0,0.,24.0,0.,24.0,0.,24.0,0.,24.0
1986-01-25 13:15:23.690 ,6,0,0.,24.0,0.,24.0,0.,24.0,0.,24.0
1986-01-25 13:15:47.690 ,6,0,0.,24.0,0.,24.0,0.,24.0,0.,24.0
1986-01-25 13:16:11.690 ,6,0,0.,24.0,0.,24.0,0.,24.0,0.,24.0
1986-01-25 13:16:35.690 ,6,0,0.,24.0,0.,24.0,0.,24.0,0.,24.0
1986-01-25 13:16:59.680 ,6,0,0.,24.0,0.,24.0,0.,24.0,0.,24.0
1986-01-25 13:17:23.690 ,6,0,1.,24.0,0.,24.0,0.,24.0,0.,24.0
1986-01-25 13:17:47.690 ,6,0,1.,24.0,1.,24.0,0.,24.0,0.,24.0
1986-01-25 13:18:11.690 ,6,0,0.,24.0,0.,24.0,0.,24.0,0.,24.0
1986-01-25 13:18:35.690 ,6,0,0.,24.0,0.,24.0,0.,24.0,0.,24.0
1986-01-25 13:18:59.690 ,6,0,0.,24.0,0.,24.0,0.,24.0,0.,24.0
1986-01-25 13:19:23.690 ,6,0,0.,24.0,0.,24.0,0.,24.0,0.,24.0
1986-01-25 13:19:47.690 ,6,0,0.,24.0,0.,24.0,0.,24.0,0.,24.0
1986-01-25 13:20:11.690 ,6,0,0.,24.0,0.,24.0,0.,24.0,0.,24.0
1986-01-25 13:20:35.690 ,6,0,0.,24.0,0.,24.0,0.,24.0,0.,24.0
1986-01-25 13:20:59.690 ,7,1,21.,24.0,0.,24.0,0.,24.0,0.,24.0
1986-01-25 13:21:23.690 ,3,1,0.,24.0,1.,24.0,0.,24.0,0.,24.0
1986-01-25 13:21:47.690 ,0,1,0.,24.0,0.,24.0,0.,24.0,0.,24.0
1986-01-25 13:22:11.690 ,4,1,0.,24.0,0.,24.0,0.,24.0,0.,24.0
1986-01-25 13:22:35.690 ,6,0,0.,24.0,0.,24.0,0.,24.0,0.,24.0
1986-01-25 13:22:59.690 ,6,0,0.,24.0,0.,24.0,0.,24.0,0.,24.0
1986-01-25 13:23:23.690 ,6,0,0.,24.0,1.,24.0,0.,24.0,0.,24.0
1986-01-25 13:23:47.690 ,6,0,0.,24.0,0.,24.0,0.,24.0,0.,24.0
1986-01-25 13:24:11.690 ,6,0,0.,24.0,0.,24.0,0.,24.0,0.,24.0
1986-01-25 13:24:35.690 ,6,0,0.,24.0,0.,24.0,0.,24.0,0.,24.0
1986-01-25 13:24:59.690 ,6,0,0.,24.0,0.,24.0,0.,24.0,0.,24.0
1986-01-25 13:25:23.690 ,6,0,0.,24.0,0.,24.0,0.,24.0,0.,24.0
1986-01-25 13:25:47.690 ,6,0,0.,24.0,0.,24.0,0.,24.0,0.,24.0
1986-01-25 13:26:11.690 ,6,0,0.,24.0,0.,24.0,0.,24.0,0.,24.0
1986-01-25 13:26:35.690 ,6,0,0.,24.0,0.,24.0,0.,24.0,0.,24.0
1986-01-25 13:26:59.690 ,6,0,0.,24.0,0.,24.0,0.,24.0,0.,24.0
1986-01-25 13:27:23.690 ,6,0,0.,24.0,0.,24.0,0.,24.0,0.,24.0
1986-01-25 13:27:47.690 ,6,0,0.,24.0,0.,24.0,0.,24.0,0.,24.0
1986-01-25 13:28:11.690 ,6,0,0.,24.0,0.,24.0,0.,24.0,0.,24.0
1986-01-25 13:28:35.690 ,6,0,0.,24.0,0.,24.0,0.,24.0,0.,24.0
1986-01-25 13:28:59.690 ,6,0,0.,24.0,0.,24.0,0.,24.0,0.,24.0
1986-01-25 13:29:23.690 ,6,0,0.,24.0,0.,24.0,0.,24.0,0.,24.0
1986-01-25 13:29:47.690 ,6,0,0.,24.0,0.,24.0,0.,24.0,0.,24.0
1986-01-25 13:30:11.690 ,6,0,0.,24.0,0.,24.0,0.,24.0,0.,24.0
1986-01-25 13:30:35.690 ,6,0,1.,24.0,0.,24.0,0.,24.0,0.,24.0
1986-01-25 13:30:59.690 ,6,0,0.,24.0,0.,24.0,0.,24.0,0.,24.0
1986-01-25 13:31:23.690 ,6,0,0.,24.0,0.,24.0,0.,24.0,0.,24.0
1986-01-25 13:31:47.690 ,6,0,1.,24.0,1.,24.0,0.,24.0,0.,24.0
1986-01-25 13:32:11.680 ,6,0,0.,24.0,0.,24.0,0.,24.0,0.,24.0
1986-01-25 13:32:35.680 ,6,0,0.,24.0,0.,24.0,0.,24.0,0.,24.0
1986-01-25 13:32:59.680 ,7,1,10.,24.0,0.,24.0,0.,24.0,0.,24.0
1986-01-25 13:33:23.680 ,3,1,0.,24.0,0.,24.0,0.,24.0,0.,24.0
1986-01-25 13:33:47.680 ,0,1,1.,24.0,0.,24.0,0.,24.0,0.,24.0
1986-01-25 13:34:11.680 ,4,1,0.,24.0,0.,24.0,0.,24.0,0.,24.0
1986-01-25 13:34:35.680 ,6,0,0.,24.0,0.,24.0,0.,24.0,0.,24.0
1986-01-25 13:34:59.680 ,6,0,0.,24.0,0.,24.0,0.,24.0,0.,24.0
1986-01-25 13:35:23.680 ,6,0,0.,24.0,0.,24.0,0.,24.0,0.,24.0
1986-01-25 13:35:47.680 ,6,0,0.,24.0,0.,24.0,0.,24.0,0.,24.0
1986-01-25 13:36:11.680 ,6,0,0.,24.0,0.,24.0,0.,24.0,0.,24.0
1986-01-25 13:36:35.680 ,6,0,0.,24.0,0.,24.0,0.,24.0,0.,24.0
1986-01-25 13:36:59.680 ,6,0,0.,24.0,0.,24.0,0.,24.0,0.,24.0
1986-01-25 13:37:23.680 ,6,0,0.,24.0,0.,24.0,0.,24.0,0.,24.0
1986-01-25 13:37:47.680 ,6,0,0.,24.0,0.,24.0,0.,24.0,0.,24.0
1986-01-25 13:38:11.680 ,6,0,0.,24.0,0.,24.0,0.,24.0,0.,24.0
1986-01-25 13:38:35.680 ,6,0,0.,24.0,0.,24.0,0.,24.0,0.,24.0
1986-01-25 13:38:59.680 ,6,0,0.,24.0,0.,24.0,0.,24.0,0.,24.0
1986-01-25 13:39:23.680 ,6,0,0.,24.0,0.,24.0,0.,24.0,0.,24.0
1986-01-25 13:39:47.680 ,6,0,0.,24.0,0.,24.0,0.,24.0,0.,24.0
1986-01-25 13:40:11.680 ,6,0,0.,24.0,0.,24.0,0.,24.0,0.,24.0
1986-01-25 13:40:35.680 ,6,0,0.,24.0,0.,24.0,0.,24.0,0.,24.0
1986-01-25 13:40:59.680 ,6,0,0.,24.0,0.,24.0,0.,24.0,0.,24.0
1986-01-25 13:41:23.680 ,6,0,0.,24.0,0.,24.0,0.,24.0,0.,24.0
1986-01-25 13:41:47.680 ,6,0,0.,24.0,0.,24.0,0.,24.0,0.,24.0
1986-01-25 13:42:11.680 ,6,0,0.,24.0,0.,24.0,0.,24.0,0.,24.0
1986-01-25 13:42:35.680 ,6,0,0.,24.0,0.,24.0,0.,24.0,0.,24.0
1986-01-25 13:42:59.680 ,6,0,0.,24.0,0.,24.0,0.,24.0,0.,24.0
1986-01-25 13:43:23.680 ,6,0,0.,24.0,0.,24.0,0.,24.0,0.,24.0
1986-01-25 13:43:47.680 ,6,0,0.,24.0,0.,24.0,0.,24.0,0.,24.0
1986-01-25 13:44:11.680 ,6,0,1.,24.0,0.,24.0,0.,24.0,0.,24.0
1986-01-25 13:44:35.680 ,6,0,1.,24.0,0.,24.0,0.,24.0,0.,24.0
1986-01-25 13:44:59.680 ,7,1,17.,24.0,0.,24.0,0.,24.0,0.,24.0
1986-01-25 13:45:23.680 ,3,1,0.,24.0,0.,24.0,0.,24.0,0.,24.0
1986-01-25 13:45:47.680 ,0,1,0.,24.0,0.,24.0,0.,24.0,0.,24.0
1986-01-25 13:46:11.680 ,4,1,0.,24.0,0.,24.0,0.,24.0,0.,24.0
1986-01-25 13:46:35.680 ,6,0,0.,24.0,0.,24.0,0.,24.0,0.,24.0
1986-01-25 13:46:59.680 ,6,0,0.,24.0,0.,24.0,0.,24.0,0.,24.0
1986-01-25 13:47:23.680 ,6,0,0.,24.0,0.,24.0,0.,24.0,0.,24.0
1986-01-25 13:47:47.680 ,6,0,0.,24.0,0.,24.0,0.,24.0,0.,24.0
1986-01-25 13:48:11.680 ,6,0,0.,24.0,0.,24.0,0.,24.0,0.,24.0
1986-01-25 13:48:35.680 ,6,0,0.,24.0,0.,24.0,0.,24.0,0.,24.0
1986-01-25 13:48:59.680 ,6,0,1.,24.0,0.,24.0,0.,24.0,0.,24.0
1986-01-25 13:49:23.680 ,6,0,0.,24.0,0.,24.0,0.,24.0,0.,24.0
1986-01-25 13:49:47.680 ,6,0,0.,24.0,0.,24.0,0.,24.0,0.,24.0
1986-01-25 13:50:11.680 ,6,0,0.,24.0,0.,24.0,0.,24.0,0.,24.0
1986-01-25 13:50:35.680 ,6,0,0.,24.0,0.,24.0,0.,24.0,0.,24.0
1986-01-25 13:50:59.680 ,6,0,0.,24.0,0.,24.0,0.,24.0,0.,24.0
1986-01-25 13:51:23.680 ,6,0,0.,24.0,0.,24.0,0.,24.0,0.,24.0
1986-01-25 13:51:47.680 ,6,0,0.,24.0,0.,24.0,0.,24.0,0.,24.0
1986-01-25 13:52:11.680 ,6,0,0.,24.0,0.,24.0,0.,24.0,0.,24.0
1986-01-25 13:52:35.680 ,6,0,0.,24.0,0.,24.0,0.,24.0,0.,24.0
1986-01-25 13:52:59.680 ,6,0,0.,24.0,0.,24.0,0.,24.0,0.,24.0
1986-01-25 13:53:23.680 ,6,0,0.,24.0,0.,24.0,0.,24.0,0.,24.0
1986-01-25 13:53:47.680 ,6,0,0.,24.0,0.,24.0,0.,24.0,0.,24.0
1986-01-25 13:54:11.680 ,6,0,0.,24.0,0.,24.0,0.,24.0,0.,24.0
1986-01-25 13:54:35.680 ,6,0,0.,24.0,0.,24.0,0.,24.0,0.,24.0
1986-01-25 13:54:59.680 ,6,0,0.,24.0,0.,24.0,0.,24.0,0.,24.0
1986-01-25 13:55:23.680 ,6,0,0.,24.0,0.,24.0,0.,24.0,0.,24.0
1986-01-25 13:55:47.680 ,6,0,0.,24.0,0.,24.0,0.,24.0,0.,24.0
1986-01-25 13:56:11.680 ,6,0,0.,24.0,0.,24.0,0.,24.0,0.,24.0
1986-01-25 13:56:35.680 ,6,0,0.,24.0,0.,24.0,0.,24.0,0.,24.0
1986-01-25 13:56:59.680 ,7,1,16.,24.0,0.,24.0,0.,24.0,0.,24.0
1986-01-25 13:57:23.680 ,3,1,0.,24.0,0.,24.0,0.,24.0,0.,24.0
1986-01-25 13:57:47.680 ,0,1,0.,24.0,0.,24.0,0.,24.0,0.,24.0
1986-01-25 13:58:11.680 ,4,1,0.,24.0,1.,24.0,0.,24.0,0.,24.0
1986-01-25 13:58:35.680 ,6,0,0.,24.0,0.,24.0,0.,24.0,0.,24.0
1986-01-25 13:58:59.680 ,6,0,0.,24.0,0.,24.0,0.,24.0,0.,24.0
1986-01-25 13:59:23.680 ,6,0,0.,24.0,0.,24.0,0.,24.0,0.,24.0
1986-01-25 13:59:47.680 ,6,0,0.,24.0,0.,24.0,0.,24.0,0.,24.0
1986-01-25 14:00:11.680 ,6,0,0.,24.0,1.,24.0,0.,24.0,0.,24.0
1986-01-25 14:00:35.680 ,6,0,0.,24.0,0.,24.0,0.,24.0,0.,24.0
1986-01-25 14:00:59.680 ,6,0,16.,24.0,0.,24.0,0.,24.0,0.,24.0
1986-01-25 14:01:23.680 ,6,0,0.,24.0,0.,24.0,0.,24.0,0.,24.0
1986-01-25 14:01:47.680 ,6,0,0.,24.0,0.,24.0,0.,24.0,0.,24.0
1986-01-25 14:02:11.680 ,6,0,0.,24.0,0.,24.0,0.,24.0,0.,24.0
1986-01-25 14:02:35.680 ,6,0,0.,24.0,0.,24.0,0.,24.0,0.,24.0
1986-01-25 14:02:59.680 ,6,0,0.,24.0,0.,24.0,0.,24.0,0.,24.0
1986-01-25 14:03:23.680 ,6,0,2.,24.0,0.,24.0,0.,24.0,0.,24.0
1986-01-25 14:03:47.680 ,6,0,0.,24.0,0.,24.0,0.,24.0,0.,24.0
1986-01-25 14:04:11.680 ,6,0,0.,24.0,0.,24.0,0.,24.0,0.,24.0
1986-01-25 14:04:35.680 ,6,0,0.,24.0,0.,24.0,0.,24.0,0.,24.0
1986-01-25 14:04:59.680 ,6,0,0.,24.0,0.,24.0,0.,24.0,0.,24.0
1986-01-25 14:05:23.680 ,6,0,0.,24.0,1.,24.0,0.,24.0,0.,24.0
1986-01-25 14:05:47.680 ,6,0,0.,24.0,0.,24.0,0.,24.0,0.,24.0
1986-01-25 14:06:11.680 ,6,0,0.,24.0,0.,24.0,0.,24.0,0.,24.0
1986-01-25 14:06:35.680 ,6,0,0.,24.0,0.,24.0,0.,24.0,0.,24.0
1986-01-25 14:06:59.680 ,6,0,0.,24.0,0.,24.0,0.,24.0,0.,24.0
1986-01-25 14:07:23.680 ,6,0,0.,24.0,0.,24.0,0.,24.0,0.,24.0
1986-01-25 14:07:47.680 ,6,0,0.,24.0,0.,24.0,0.,24.0,0.,24.0
1986-01-25 14:08:11.680 ,6,0,0.,24.0,0.,24.0,0.,24.0,0.,24.0
1986-01-25 14:08:35.680 ,6,0,0.,24.0,0.,24.0,0.,24.0,0.,24.0
1986-01-25 14:08:59.680 ,5,1,16.,24.0,0.,24.0,0.,24.0,0.,24.0
1986-01-25 14:09:23.680 ,5,0,46.,24.0,0.,24.0,0.,24.0,0.,24.0
1986-01-25 14:09:47.680 ,6,1,21.,24.0,0.,24.0,0.,24.0,0.,24.0
1986-01-25 14:10:11.680 ,6,0,0.,24.0,0.,24.0,0.,24.0,0.,24.0
1986-01-25 14:10:35.680 ,5,1,0.,24.0,0.,24.0,0.,24.0,0.,24.0
1986-01-25 14:10:59.680 ,5,0,0.,24.0,0.,24.0,0.,24.0,0.,24.0
1986-01-25 14:11:23.680 ,4,1,0.,24.0,0.,24.0,0.,24.0,0.,24.0
1986-01-25 14:11:47.680 ,4,0,0.,24.0,0.,24.0,0.,24.0,0.,24.0
1986-01-25 14:12:11.680 ,3,1,0.,24.0,0.,24.0,0.,24.0,0.,24.0
1986-01-25 14:12:35.680 ,3,0,0.,24.0,0.,24.0,0.,24.0,0.,24.0
1986-01-25 14:12:59.680 ,2,1,0.,24.0,0.,24.0,0.,24.0,0.,24.0
1986-01-25 14:13:23.680 ,2,0,0.,24.0,0.,24.0,0.,24.0,0.,24.0
1986-01-25 14:13:47.680 ,1,1,0.,24.0,0.,24.0,0.,24.0,0.,24.0
1986-01-25 14:14:11.680 ,1,0,0.,24.0,0.,24.0,0.,24.0,0.,24.0
1986-01-25 14:14:35.680 ,0,1,0.,24.0,0.,24.0,0.,24.0,0.,24.0
1986-01-25 14:14:59.680 ,0,0,0.,24.0,0.,24.0,0.,24.0,0.,24.0
1986-01-25 14:15:23.680 ,0,1,1.,24.0,0.,24.0,0.,24.0,0.,24.0
1986-01-25 14:15:47.680 ,0,0,0.,24.0,0.,24.0,0.,24.0,0.,24.0
1986-01-25 14:16:11.680 ,1,1,0.,24.0,0.,24.0,0.,24.0,0.,24.0
1986-01-25 14:16:35.680 ,1,0,0.,24.0,0.,24.0,0.,24.0,0.,24.0
1986-01-25 14:16:59.680 ,2,1,1.,24.0,0.,24.0,0.,24.0,0.,24.0
1986-01-25 14:17:23.680 ,2,0,1.,24.0,0.,24.0,0.,24.0,0.,24.0
1986-01-25 14:17:47.680 ,3,1,0.,24.0,0.,24.0,0.,24.0,0.,24.0
1986-01-25 14:18:11.680 ,3,0,0.,24.0,0.,24.0,0.,24.0,0.,24.0
1986-01-25 14:18:35.680 ,4,1,0.,24.0,0.,24.0,0.,24.0,0.,24.0
1986-01-25 14:18:59.680 ,4,0,0.,24.0,0.,24.0,0.,24.0,0.,24.0
1986-01-25 14:19:23.680 ,5,1,0.,24.0,0.,24.0,0.,24.0,0.,24.0
1986-01-25 14:19:47.680 ,5,0,0.,24.0,0.,24.0,0.,24.0,0.,24.0
1986-01-25 14:20:11.680 ,6,1,0.,24.0,0.,24.0,0.,24.0,0.,24.0
1986-01-25 14:20:35.680 ,6,0,1.,24.0,0.,24.0,0.,24.0,0.,24.0
1986-01-25 14:20:59.680 ,7,1,10.,24.0,0.,24.0,0.,24.0,0.,24.0
1986-01-25 14:21:23.680 ,7,0,35.,24.0,0.,24.0,0.,24.0,0.,24.0
1986-01-25 14:21:47.680 ,7,1,23.,24.0,2.,24.0,0.,24.0,0.,24.0
1986-01-25 14:22:11.680 ,7,0,34.,24.0,0.,24.0,0.,24.0,0.,24.0
1986-01-25 14:22:35.680 ,6,1,20.,24.0,0.,24.0,0.,24.0,0.,24.0
1986-01-25 14:22:59.680 ,6,0,0.,24.0,0.,24.0,0.,24.0,0.,24.0
1986-01-25 14:23:23.680 ,5,1,0.,24.0,0.,24.0,0.,24.0,0.,24.0
1986-01-25 14:23:47.680 ,5,0,0.,24.0,0.,24.0,0.,24.0,0.,24.0
1986-01-25 14:24:11.680 ,4,1,0.,24.0,0.,24.0,0.,24.0,0.,24.0
1986-01-25 14:24:35.680 ,4,0,0.,24.0,0.,24.0,0.,24.0,0.,24.0
1986-01-25 14:24:59.680 ,3,1,0.,24.0,0.,24.0,0.,24.0,0.,24.0
1986-01-25 14:25:23.680 ,3,0,0.,24.0,0.,24.0,0.,24.0,0.,24.0
1986-01-25 14:25:47.680 ,2,1,0.,24.0,0.,24.0,0.,24.0,0.,24.0
1986-01-25 14:26:11.680 ,2,0,0.,24.0,0.,24.0,0.,24.0,0.,24.0
1986-01-25 14:26:35.680 ,1,1,0.,24.0,0.,24.0,0.,24.0,0.,24.0
1986-01-25 14:26:59.680 ,1,0,0.,24.0,0.,24.0,0.,24.0,0.,24.0
1986-01-25 14:27:23.680 ,0,1,0.,24.0,0.,24.0,0.,24.0,0.,24.0
1986-01-25 14:27:47.680 ,0,0,0.,24.0,0.,24.0,0.,24.0,0.,24.0
1986-01-25 14:28:11.680 ,0,1,0.,24.0,0.,24.0,0.,24.0,0.,24.0
1986-01-25 14:28:35.680 ,0,0,1.,24.0,0.,24.0,0.,24.0,0.,24.0
1986-01-25 14:28:59.680 ,1,1,0.,24.0,0.,24.0,0.,24.0,0.,24.0
1986-01-25 14:29:23.680 ,1,0,0.,24.0,0.,24.0,0.,24.0,0.,24.0
1986-01-25 14:29:47.680 ,2,1,0.,24.0,0.,24.0,0.,24.0,0.,24.0
1986-01-25 14:30:11.680 ,2,0,0.,24.0,0.,24.0,0.,24.0,0.,24.0
1986-01-25 14:30:35.680 ,3,1,0.,24.0,0.,24.0,0.,24.0,0.,24.0
1986-01-25 14:30:59.680 ,3,0,0.,24.0,0.,24.0,0.,24.0,0.,24.0
1986-01-25 14:31:23.680 ,4,1,0.,24.0,1.,24.0,0.,24.0,0.,24.0
1986-01-25 14:31:47.680 ,4,0,0.,24.0,0.,24.0,0.,24.0,0.,24.0
1986-01-25 14:32:11.680 ,5,1,0.,24.0,0.,24.0,0.,24.0,0.,24.0
1986-01-25 14:32:35.680 ,5,0,0.,24.0,0.,24.0,0.,24.0,0.,24.0
1986-01-25 14:32:59.680 ,6,1,0.,24.0,0.,24.0,0.,24.0,0.,24.0
1986-01-25 14:33:23.680 ,6,0,0.,24.0,0.,24.0,0.,24.0,0.,24.0
1986-01-25 14:33:47.680 ,7,1,6.,24.0,0.,24.0,0.,24.0,0.,24.0
1986-01-25 14:34:11.680 ,7,0,25.,24.0,0.,24.0,0.,24.0,0.,24.0